Regional Weather Roundup
Issued by NWS Grand Forks, ND

Home | Current Version | Previous Version | Text Only | Print | Product List | Glossary Off
Versions: 1 2 3 4 5 6 7 8 9 10 11 12 13 14 15 16 17 18 19 20 21 22 23 24 25 26 27 28 29 30 31 32 33 34 35 36 37 38 39 40 41 42 43 44 45 46 47 48 49 50

000
ASUS43 KFGF 121510
RWRFGF
PRAIRIE TO PINES  WEATHER ROUNDUP
NATIONAL WEATHER SERVICE EASTERN NORTH DAKOTA/GRAND FORKS ND
900 AM CST FRI FEB 12 2016

 **SATELLITE DATA USED TO AUGMENT SKY COVER AT AUTOMATED STATIONS**
 *****  WEATHER ACROSS EASTERN NORTH DAKOTA  *****

CITY           SKY/WX    TMP DP  RH WIND       PRES   REMARKS
GRAND FORKS    MOSUNNY   -4 -13  65 N20       30.61R WCI -27
GRAND FRKS AFB SUNNY     -4 -15  59 N22       30.60R WCI -29
DEVILS LAKE    PTCLDY    -9 -15  75 N15       30.58R WCI -31
FARGO          PTSUNNY    0  -9  65 N22       30.57R WCI -23
WAHPETON ARPT  MOSUNNY    1  -6  71 N15       30.54R WCI -18
$$

 ***** WEATHER ACROSS CENTRAL AND WESTERN NORTH DAKOTA  *****

CITY           SKY/WX    TMP DP  RH WIND       PRES   REMARKS
BISMARCK       CLOUDY     7  -2  66 VRB5      30.57R WCI  -2
MINOT          PTCLDY     0 -11  59 N9        30.57R WCI -15
JAMESTOWN      PTSUNNY   -1  -9  68 N16       30.55R WCI -21
MINOT AFB      PTCLDY    -3 -11  69 N7        30.58R WCI -17
GARRISON         N/A     -1  -8  72 N7        30.55R WCI -14
WILLISTON      CLOUDY     2  -4  76 N6        30.56R WCI  -9
DICKINSON      LGT SNOW   6   1  80 NE12      30.45R WCI  -9
HETTINGER      CLOUDY    15  12  88 NE13      30.45R FOG     WCI   1
$$

 *****  OTHER AIRPORT OBSERVATIONS IN OUR AREA  *****

CITY           SKY/WX    TMP DP  RH WIND       PRES   REMARKS
WALHALLA       FAIR      -8 -15  71 N16       30.64R WCI -30
GRAFTON AIRPOR FAIR      -8 -15  71 N21       30.64R WCI -32
VALLEY CITY AR PTSUNNY   -4 -11  71 N12       30.57R WCI -22
CANDO          NOT AVBL
CAVALIER APRT  FAIR      -8 -15  71 N16       30.64R WCI -30
GWINNER        FAIR       1  -6  71 N12       30.55R WCI -15
SHEYENNE NWR     N/A     -2 -12  64 N8        29.95S WCI -17
ROLLA          FAIR     -17 -20  83 NW10      30.55R WCI -37
 ***** THE ABOVE OBSERVATIONS ARE NON NWS ARE NOT QUALITY
       CONTROLLED AND MAY MIS-REPORT RAIN FOR SNOW...
$$

  *****  WEATHER ACROSS NORTHERN MINNESOTA  *****

CITY           SKY/WX    TMP DP  RH WIND       PRES   REMARKS
FLAG ISLAND    SUNNY    -15 -20  76 NW18      30.47R WCI -41
WARROAD        CLOUDY   -13 -20  70 NW10      30.49R WCI -32
ROSEAU         CLOUDY   -13 -18  77 NW9       30.52R WCI -31
HALLOCK        CLOUDY    -9 -18  64 NW15      30.61R WCI -31
THF RVR FALLS  SUNNY     -8 -22  49 NW15      30.54R WCI -29
BAUDETTE       SUNNY    -13 -21  67 NW15G25   30.43R WCI -36
WASKISH        SUNNY     -9 -17  70 NW9       30.45R WCI -27
CROOKSTON      SUNNY     -6 -11  77 N20       30.59R WCI -29
GREENBUSH NDAW   N/A    -11 -17  77 NW14        N/A  WCI -33
$$
  *****  WEATHER ACROSS CENTRAL AND WEST MINNESOTA  *****

CITY           SKY/WX    TMP DP  RH WIND       PRES   REMARKS
FOSSTON        PTSUNNY   -8 -17  65 NW14G20   30.50R WCI -28
BEMIDJI        MOSUNNY   -8 -15  74 NW16      30.43R WCI -31
PARK RAPIDS    SUNNY     -5 -14  65 N15       30.40R WCI -26
ELBOW LAKE     FAIR      -1  -8  74 N17G26    30.48R WCI -22
WADENA         SUNNY     -4 -11  71 N14G24    30.42R WCI -24
DETROIT LAKES  MOSUNNY   -4  -9  77 N16G22    30.47R WCI -25
MOORHEAD       PTSUNNY   -2  -9  71 N24       30.56R WCI -27
FERGUS FALLS   SUNNY     -2  -9  71 N16G29    30.53R WCI -23
MORRIS MN      LGT SNOW   1  -6  71 N22G29    30.47R WCI -21
STAPLES        SUNNY     -4 -11  71 N15G23    30.40R WCI -25
$$
  *****  WEATHER ELSEWHERE ACROSS MINNESOTA  *****

CITY           SKY/WX    TMP DP  RH WIND       PRES   REMARKS
DULUTH         MOSUNNY   -4 -14  62 NW17G25   30.24R WCI -26
INTRNTL FALLS  CLOUDY   -11 -19  68 NW16      30.39R HAZE    WCI -34
ELY            SUNNY     -9 -17  70 NW14G28   30.25R HAZE    WCI -31
CLOQUET        SUNNY     -4 -15  59 NW22G33   30.28R WCI -28
WHEATON        MOSUNNY    3  -2  78 NW15      30.55R WCI -15
BRAINERD       MOSUNNY   -2 -12  62 N21G28    30.38R WCI -25
HIBBING        CLOUDY    -9 -15  75 NW21G29   30.31R HAZE    WCI -34
ALEXANDRIA     SUNNY      0 -10  63 NW18G29   30.42R WCI -21
SAINT CLOUD    SUNNY      3  -6  66 NW20G25   30.38R WCI -18
MINNEAPOLIS    SUNNY      8  -2  63 NW14G24   30.36R WCI  -8
$$

  *****  WEATHER ACROSS SOUTH DAKOTA  *****

CITY           SKY/WX    TMP DP  RH WIND       PRES   REMARKS
SIOUX FALLS    CLOUDY    12   6  77 N13       30.45R WCI  -3
BROOKINGS      CLOUDY     8   0  69 N14       30.45R WCI  -8
WATERTOWN      CLOUDY     5  -4  66 N15       30.45R WCI -13
HURON          FLURRIES  12   6  77 N13       30.53R WCI  -3
SISSETON         N/A      1  -6  72 N20       30.53R WCI -20
ABERDEEN       CLOUDY     8  -3  61 N16       30.55R WCI -10
MITCHELL       CLOUDY    15  10  80 N15       30.51R WCI   0
PIERRE         CLOUDY    21  14  74 NE10      30.48R WCI  10
MOBRIDGE       CLOUDY    16  10  77 N9        30.48R HAZE    WCI   4
RAPID CITY     CLOUDY    28  26  92 NE8       30.38R FOG     WCI  20
$$

  *****  SOME WEATHER IN NEARBY STATES *****

CITY           SKY/WX    TMP DP  RH WIND       PRES   REMARKS
GLASGOW MT     CLOUDY    17  11  77 E21       30.44R WCI   0
GREAT FALLS MT CLOUDY    33  30  88 NE6       30.21S
CHEYENNE WY    CLOUDY    36  27  69 CALM      30.30R
SCOTTSBLUFF NE CLOUDY    33  29  85 W3        30.31R
OMAHA NE       CLOUDY    22  17  81 N15       30.43R WCI   9
DES MOINES IA  MOSUNNY   20  12  71 NW12      30.37R WCI   8
DAVENPORT IA   LGT SNOW  19  12  74 NW16      30.26R WCI   4
CHICAGO IL     FLURRIES  19  10  68 W15G25    30.14R WCI   5
EAU CLAIRE WI  SUNNY      9  -3  58 NW20G25   30.25R WCI -10
LA CROSSE WI   PTSUNNY   13   4  67 NW22G28   30.26R WCI  -6
$$

  *****  SOME NATIONAL WEATHER *****

CITY           SKY/WX    TMP DP  RH WIND       PRES   REMARKS
LA GUARDIA NY  MOSUNNY   22   1  40 NW3       30.25F
RALEIGH NC     CLOUDY    29   8  41 E8        30.25S WCI  21
ATLANTA GA     PTSUNNY   43  27  53 E6        30.13S
NEW ORLEANS LA PTSUNNY   65  57  75 W9        30.27R
OKLAHOMA CITY  MOSUNNY   42  34  73 N6        30.30R
ALBUQUERQUE NM CLOUDY    35  20  54 NE3       30.41R
SALT LAKE CITY FOG       29  27  92 CALM      30.44  VSB 1
LOS ANGELES CA PTCLDY    60  37  42 CALM      30.10R
BOISE ID       CLEAR     30  28  92 CALM      30.34R
SEATTLE WA     CLOUDY    51  50  96 SE10      30.08F FOG
$$

*** WEATHER ACROSS MANITOBA...SASKATCHEWAN AND ONTARIO ***
                ***ONTARIO***

CITY           SKY/WX    TMP DP  RH WIND       PRES   REMARKS
GERALDTON      MOSUNNY  -22 -33  57 NW16G23   30.11R WCI -48
THUNDER BAY    MOSUNNY   -9 -22  54 N13G23    30.26R WCI -30
SIOUX LOOKOUT  SUNNY    -18 -27  63 NW13      30.30R WCI -41
TORONTO        CLOUDY    18   7  62 SW21      29.95F WCI   1
BIG TROUT LK   PTSUNNY  -27 -35  68 NW18G24   30.24R HAZE    WCI -57
PICKLE LAKE    CRYSTALS -24 -33  62 NW10G20   30.19R DRFTSNOWWCI -46
DRYDEN         SUNNY    -18 -26  69 NW10G17   30.33R WCI -39
KENORA         SUNNY    -18 -24  76 NW13      30.41R WCI -41
$$
                *** MANITOBA***

CITY           SKY/WX    TMP DP  RH WIND       PRES   REMARKS
BRANDON        PTCLDY   -20 -26  76 NW13      30.62R WCI -43
DAUPHIN        CLEAR    -18 -22  83 W6        30.68R WCI -33
ISLAND LAKE    PTCLDY   -27 -35  68 W9        30.46R WCI -49
PILOT MOUND      N/A    -17 -22  76 N7          N/A  WCI -33
THE PAS        PTCLDY   -22 -29  69 NW10      30.71R WCI -44
THOMPSON       CLEAR    -26 -33  68 NW8       30.56S WCI -45
WINNIPEG       CLEAR    -15 -24  64 NW10      30.64R WCI -35
LYNN LAKE      CLEAR    -31 -36  75 W10       30.60S WCI -55
CHURCHILL      CRYSTALS -20 -27  69 NW21G33   30.41S VSB 3/4 WCI -49
GILLAM         CLEAR    -24 -31  69 NW12      30.43S WCI -47
$$
                ***SASKATCHEWAN***

CITY           SKY/WX    TMP DP  RH WIND       PRES   REMARKS
ESTEVAN        MOCLDY     0  -6  78 N7        30.56S WCI -13
KINDERSLEY     MOCLDY     3  -2  78 E16       30.42S WCI -16
LLOYDMINSTER   CRYSTALS  -2  -6  84 SE14      30.43S WCI -21
PRINCE ALBERT  PTCLDY   -24 -31  69 CALM      30.66R
REGINA         PTCLDY     0  -4  85 E6        30.57R WCI -12
YORKTON        CLEAR    -18 -22  83 W5        30.61R WCI -31
N. BATTLEFORD  LGT SNOW  -4  -9  77 E16       30.54F WCI -25
LA RONGE       PTCLDY   -33 -38  75 VRB2      30.69S
SASKATOON      PTCLDY    -2  -8  78 SE10      30.61R WCI -19
SWIFT CURRENT  CLOUDY     7   3  85 SE17G23   30.38S WCI -12
$$
NOTE: THESE ARE AUTOMATED STATIONS WITH LIMITED QUALITY CONTROL
      "FAIR" INDICATES FEW OR NO CLOUDS BELOW 12,000 FEET WITH NO
      SIGNIFICANT WEATHER AND/OR OBSTRUCTIONS TO VISIBILITY.
      SKY/WX - SKY CONDITION AND SIGNIFICANT WEATHER.
      TMP - AIR TEMPERATURE.    DP   - DEWPOINT TEMPERATURE.
      RH  - RELATIVE HUMIDITY.  PRES - PRESSURE.
      HX  - HEAT INDEX.         WCI  - WIND CHILL INDEX.
$



USA.gov is the U.S. government's official web portal to all federal, state and local government web resources and services.